RH
35 37 30 25 28 28 22 19 15 12 13 17 21 23 26 32 35 35 38 41 44 44 43 40 37 36 36 36 34 28 22 19 17 14 13 13 12 12 11 11 11 11 11 10 8 8 8 8 8 9 10 10 11 12 13 13 14 14 19 19 17 19 17 16 16 14 14 12 11 11 10 10 10 9 8 9 8 8 8 8 9 9 9 9 9 11 10 9
38 35 26 25 26 23 21 19 14 12 14 18 22 24 26 31 35 37 38 41 41 39 37 34 31 31 32 32 28 23 20 18 15 13 13 13 12 11 11 10 11 12 11 9 9 8 8 8 9 10 11 10 11 12 12 13 13 16 20 18 19 22 17 15 14 13 12 10 10 11 10 9 9 9 8 9 9 9 9 9 9 9 9 9 9 11 10 9
38 32 24 25 22 19 19 18 15 13 14 19 24 24 26 29 34 38 37 38 35 33 31 29 27 26 27 28 25 21 18 16 14 14 13 12 11 10 10 10 11 11 10 9 9 8 9 9 9 10 10 10 11 11 11 12 12 14 16 16 19 22 16 14 13 12 12 10 11 11 10 10 8 8 8 9 9 10 10 9 9 9 9 9 9 10 10 9
35 30 24 23 19 17 18 17 16 14 14 20 25 25 24 27 33 35 33 32 30 29 28 26 24 23 24 23 22 20 17 15 14 14 14 12 11 10 9 10 10 10 9 8 8 8 9 9 9 10 10 10 11 11 11 11 11 12 14 15 17 17 15 13 12 12 12 11 11 11 11 10 8 8 8 9 9 10 10 8 8 8 8 8 9 10 10 10
30 28 23 21 19 17 16 16 17 15 15 21 26 25 23 26 32 33 31 30 27 26 25 24 22 21 21 20 19 18 16 15 14 13 13 12 11 11 10 9 10 9 8 8 8 8 8 9 9 10 10 10 11 10 11 11 11 11 12 14 14 13 13 12 12 13 12 11 11 11 11 10 9 9 8 8 9 10 9 7 8 8 7 8 8 9 9 10
28 26 23 20 17 16 16 16 16 15 16 22 26 25 22 26 32 33 30 27 25 23 23 22 21 21 20 19 18 16 16 15 14 13 12 12 11 12 11 10 10 9 8 8 8 9 9 9 9 10 9 10 11 10 10 10 10 11 11 12 12 12 12 12 13 12 12 12 12 12 11 10 9 8 9 9 9 9 7 7 8 8 8 8 8 8 9 10
27 25 23 21 18 16 16 16 15 15 16 22 27 25 22 25 31 32 29 26 23 23 22 22 21 20 20 19 17 16 15 15 15 14 11 10 10 12 13 10 10 9 8 8 8 9 9 9 9 9 9 10 10 9 10 9 9 10 11 11 12 11 11 12 13 12 12 12 12 12 11 10 9 8 9 8 8 8 7 8 8 8 9 8 9 9 9 10
27 26 24 21 20 18 16 15 15 16 16 21 27 26 22 24 30 30 27 25 23 23 22 22 22 20 20 19 17 16 15 14 15 14 12 10 10 12 13 11 10 10 9 9 9 9 9 9 8 8 9 9 9 9 9 9 9 10 10 10 11 11 11 12 12 12 12 12 12 11 11 10 9 9 9 9 8 8 8 8 8 8 9 9 9 10 10 10
27 27 26 22 21 18 16 16 16 16 16 21 27 26 21 23 28 29 27 24 23 23 23 23 22 21 20 19 17 16 14 14 15 15 13 11 11 13 12 11 11 10 10 9 9 10 9 9 8 8 8 8 8 9 9 9 9 9 10 10 11 11 11 11 11 12 12 12 12 11 11 10 9 9 9 8 8 8 8 8 8 9 9 9 9 10 11 11
27 27 27 24 21 18 17 16 15 16 16 21 27 26 21 21 26 28 26 25 24 24 25 24 23 22 20 19 18 16 14 13 14 15 14 12 12 13 12 11 11 11 10 10 9 9 9 9 9 8 8 9 9 9 9 8 8 9 10 10 10 11 11 10 10 11 12 12 11 11 11 11 9 10 9 8 8 8 8 9 8 9 10 10 10 11 11 11
27 27 27 25 22 19 17 16 16 16 16 21 27 26 21 20 23 27 26 25 25 25 26 26 24 23 21 20 19 17 16 15 14 14 14 13 12 12 12 11 11 10 10 10 9 9 9 9 9 8 9 9 9 10 9 8 9 9 10 10 10 11 10 10 10 10 11 12 11 10 10 10 10 11 10 8 8 8 8 9 9 9 10 11 11 11 11 11
28 27 28 26 23 20 18 17 16 16 17 20 26 26 22 19 21 27 28 26 26 26 26 27 26 25 23 22 20 19 19 18 16 15 15 14 13 13 12 11 11 11 10 10 10 9 9 9 9 8 9 9 10 11 10 10 10 10 10 10 11 13 11 10 11 10 10 11 10 9 9 10 11 11 10 8 8 9 9 9 10 10 10 11 11 11 11 11
31 29 28 27 24 21 18 17 17 17 17 19 25 26 22 19 19 25 29 28 27 26 26 27 27 26 24 23 21 20 20 20 19 17 16 16 15 14 12 12 11 11 11 10 11 11 10 10 9 9 9 9 11 10 10 10 9 10 11 11 12 13 11 11 12 11 10 10 10 8 9 11 12 10 9 9 9 9 9 10 10 10 11 11 11 11 11 11
34 32 29 27 26 23 20 18 17 17 17 18 24 26 23 20 19 23 28 30 30 28 27 27 27 26 25 25 22 21 21 21 21 20 18 17 17 15 14 13 13 12 12 11 12 11 11 11 10 10 9 10 11 11 13 13 12 12 10 14 16 12 11 13 12 12 10 10 10 8 9 12 12 10 9 9 9 9 9 10 10 10 11 11 11 11 11 11
37 34 30 28 26 24 22 19 17 17 18 18 22 26 25 21 20 22 26 29 30 30 29 28 28 27 26 26 23 22 22 21 22 21 19 18 17 16 15 14 14 14 13 13 13 12 12 12 11 11 10 11 11 12 16 16 17 17 10 15 18 11 13 15 12 12 10 10 11 9 11 12 11 10 10 10 10 9 10 10 10 10 10 11 11 11 11 11
39 36 32 29 27 25 23 20 18 17 18 18 21 26 27 24 22 23 25 27 28 28 28 28 29 29 29 27 25 25 23 21 21 22 20 18 18 18 17 17 17 16 15 14 14 13 12 12 11 12 11 12 13 14 17 16 19 20 13 14 17 13 14 14 12 13 12 11 11 9 11 13 12 10 11 11 11 10 11 11 11 10 10 10 10 11 11 11
42 39 34 30 28 27 24 22 19 17 18 19 20 25 28 25 23 24 25 26 26 26 25 25 27 29 30 29 27 27 25 22 21 22 20 19 19 18 18 19 18 16 15 14 14 13 12 12 12 12 12 14 15 15 16 16 17 18 16 16 17 16 14 13 13 14 13 12 12 11 12 13 12 11 11 10 11 11 11 11 11 11 10 10 10 10 11 11
47 44 38 33 29 27 26 24 21 18 18 19 20 24 27 26 24 25 25 25 25 23 23 24 25 28 30 29 28 28 27 24 22 22 20 20 19 19 18 19 18 16 16 15 14 14 13 13 13 15 15 14 15 14 14 16 16 15 15 14 15 16 14 14 15 14 14 13 13 13 13 13 13 13 11 11 11 12 11 11 10 10 10 10 10 10 10 11
51 49 43 37 32 29 27 25 22 20 18 19 20 23 26 26 24 25 25 25 24 23 24 24 24 28 29 28 27 28 27 26 25 23 22 21 20 19 19 18 17 16 16 15 15 14 14 14 14 16 16 14 14 12 13 16 16 15 17 16 16 16 15 16 16 15 16 14 14 14 13 14 13 13 13 11 12 12 11 11 11 10 10 9 9 9 9 10
54 52 47 41 37 33 29 26 24 22 20 19 20 21 25 28 27 28 28 26 25 24 24 23 22 25 29 28 27 28 28 27 27 25 24 23 20 20 18 18 17 16 17 19 17 15 15 16 15 15 15 15 14 14 15 17 17 16 18 18 18 16 15 15 16 17 17 14 15 18 17 16 14 14 14 12 12 13 12 11 11 10 10 9 9 9 9 9
55 54 50 46 41 38 34 28 25 23 22 20 19 20 23 25 26 27 29 28 27 26 25 23 21 23 28 28 28 29 27 27 27 25 24 23 22 21 20 19 19 18 19 20 18 16 16 16 17 17 16 15 16 17 17 17 18 18 18 17 16 17 15 15 15 18 18 15 17 22 19 16 15 14 14 13 13 13 12 11 11 10 9 9 9 9 9 9
57 55 53 49 45 42 38 33 28 24 23 21 19 18 19 22 24 22 24 26 26 26 27 27 25 24 25 26 28 28 27 27 27 26 25 23 22 21 21 22 21 21 22 20 18 18 17 17 17 18 18 17 18 19 18 18 20 21 19 17 16 18 17 16 17 19 19 15 17 22 19 14 15 15 14 14 14 12 11 11 11 10 10 10 9 9 9 9
59 57 55 53 48 45 42 38 33 28 25 22 20 19 19 21 24 22 21 24 25 25 27 29 28 26 24 23 25 25 24 24 26 27 26 24 22 21 20 22 23 23 22 20 19 19 19 19 18 18 17 16 17 19 18 18 21 21 20 18 18 19 18 16 16 19 20 18 19 21 17 13 14 14 14 12 13 12 12 11 11 11 11 10 9 9 10 9
57 57 57 56 52 49 45 41 38 33 28 24 21 20 19 20 23 22 20 21 24 26 28 31 31 28 25 22 23 23 22 21 22 24 25 24 23 22 21 21 23 23 22 21 20 19 20 19 19 18 17 17 17 17 17 17 18 20 23 23 21 20 20 18 18 21 22 21 21 19 14 15 16 16 15 13 12 12 11 11 10 10 10 9 9 9 9 10
50 53 56 59 56 51 48 45 41 38 32 26 23 22 19 19 21 21 21 21 22 25 27 31 33 31 28 24 23 23 22 21 21 21 22 22 22 22 22 21 21 22 23 23 21 20 20 20 20 19 18 19 18 17 18 19 18 19 22 24 23 22 23 22 21 22 21 19 20 18 14 19 22 17 15 14 13 11 10 11 10 8 9 9 9 9 8 9
46 46 49 54 58 55 51 47 42 39 37 30 25 23 20 19 21 20 23 26 24 24 26 28 32 33 31 30 28 26 25 24 22 21 21 21 20 20 21 22 21 24 25 23 21 21 21 22 22 21 20 20 18 17 19 20 19 18 20 23 24 25 24 23 21 19 19 17 19 21 18 18 18 12 12 15 16 14 12 12 10 8 9 9 9 8 8 8
48 46 45 46 51 53 51 48 43 39 37 31 27 26 22 21 22 20 24 30 27 24 25 26 29 32 33 35 33 29 30 29 24 22 21 21 20 18 20 22 21 23 25 23 21 22 22 22 23 22 22 21 19 18 19 20 19 19 22 25 25 24 23 25 23 21 23 19 21 28 21 17 16 11 13 18 16 14 12 11 11 8 8 9 9 9 8 8
55 49 47 44 44 45 45 45 43 40 36 32 30 28 24 24 24 21 27 34 29 23 23 24 27 31 34 37 37 33 32 31 26 25 23 21 21 18 20 23 22 24 25 22 21 23 23 23 22 22 22 21 20 21 21 20 19 22 27 28 26 26 28 30 28 27 26 18 20 26 19 17 20 14 15 17 13 12 12 10 10 10 9 9 9 9 9 8
64 55 50 48 46 44 43 41 41 42 41 36 32 30 28 27 26 26 31 32 27 23 23 23 25 30 35 38 38 35 32 30 29 27 24 22 21 19 20 21 22 25 24 22 23 24 25 25 23 22 20 20 24 28 27 21 21 26 29 29 29 31 32 31 30 26 22 20 23 26 19 17 19 15 14 13 10 11 12 11 12 10 9 11 11 9 9 8
70 61 54 50 48 47 46 41 39 42 45 41 37 33 31 32 31 34 36 29 25 25 24 24 25 29 35 39 40 36 32 32 31 29 27 24 22 19 20 20 21 26 26 26 27 27 27 26 25 24 21 24 28 30 30 27 26 27 28 27 25 29 32 32 33 26 20 25 28 26 24 19 17 17 14 11 11 12 11 12 14 11 10 12 12 10 9 9
73 65 58 53 51 49 48 44 41 42 44 44 42 37 35 39 39 40 37 26 24 28 27 25 26 29 32 35 38 37 34 34 32 30 29 27 24 21 21 21 22 27 29 27 28 28 28 26 26 25 25 27 29 28 28 29 31 29 28 28 23 26 30 30 33 27 24 30 28 25 28 22 18 19 16 14 13 14 13 13 13 12 11 12 12 12 10 9
76 69 62 57 54 52 49 47 44 44 45 46 46 41 39 46 47 41 32 22 24 29 28 26 26 29 30 31 36 38 36 35 32 30 32 31 27 24 23 23 24 27 29 29 28 28 27 28 28 26 26 26 26 28 27 28 32 30 28 28 25 27 28 29 37 32 28 31 25 25 28 23 19 16 13 14 13 13 14 13 12 12 11 11 12 13 12 11
78 71 65 61 58 55 53 50 48 48 48 49 48 44 46 53 48 38 30 24 25 28 27 27 27 28 28 29 34 38 36 33 31 30 32 32 29 26 25 25 25 26 27 30 30 27 27 30 29 26 26 25 23 25 26 28 30 27 25 24 24 28 28 31 40 33 26 28 25 28 28 22 19 13 12 13 10 10 13 11 12 11 11 11 11 12 12 11
77 74 70 67 64 62 60 57 54 52 52 52 49 46 51 53 43 36 33 29 30 31 30 30 30 28 28 28 31 34 34 34 33 31 30 31 31 29 27 26 25 27 28 29 28 27 27 27 27 25 26 26 23 24 26 27 26 25 27 23 21 27 27 28 32 27 25 29 28 28 26 22 18 12 14 16 12 12 12 11 12 11 11 12 10 11 12 11
79 78 74 72 72 70 66 63 61 58 56 53 48 48 51 47 38 35 34 34 35 34 30 31 31 30 30 30 30 31 32 34 35 33 32 31 30 29 26 24 26 28 27 25 26 27 25 24 26 28 27 27 25 25 27 25 25 28 30 24 20 23 23 24 27 26 26 28 28 27 24 22 18 13 15 15 13 14 12 11 12 10 11 11 10 11 11 11
82 79 77 75 75 75 71 66 64 61 57 51 50 52 47 38 36 36 35 37 37 32 30 33 33 33 32 32 33 31 31 34 35 34 34 32 29 28 25 22 25 25 22 22 26 29 25 24 28 29 27 29 28 27 26 24 24 27 27 25 27 26 24 23 23 28 28 21 22 25 21 19 15 11 13 13 11 12 12 12 11 10 11 11 10 10 10 11
82 79 77 75 73 76 73 65 63 63 58 51 50 51 41 32 37 41 38 39 37 32 32 32 33 34 33 33 35 33 31 35 36 34 34 33 30 28 26 23 23 22 20 21 24 26 26 26 30 30 27 28 29 27 27 27 26 28 28 27 26 24 25 22 20 30 34 26 25 24 19 17 15 11 13 13 10 11 12 12 11 10 10 10 10 11 10 11
81 80 79 75 74 75 72 66 65 63 59 54 50 48 42 37 43 47 43 38 37 35 33 32 31 32 31 31 34 33 31 34 36 35 33 32 30 27 25 24 23 22 20 19 20 23 25 25 29 34 32 29 30 28 28 29 27 28 29 27 25 24 25 23 20 27 31 29 31 28 21 17 15 15 14 10 10 12 11 11 11 10 10 9 10 11 10 9
82 83 83 78 75 74 70 69 68 64 61 57 49 46 47 48 50 52 45 39 39 38 35 35 33 32 32 30 31 34 33 32 35 35 32 31 30 26 24 22 23 23 20 19 20 22 26 24 27 34 34 32 32 29 28 30 29 28 28 25 28 30 29 26 23 23 22 25 30 28 23 19 16 17 15 9 10 12 11 11 12 11 10 10 10 10 10 9
86 84 85 80 75 74 71 70 71 68 63 56 47 45 48 52 53 52 46 42 43 40 36 37 35 32 32 32 32 34 34 34 35 33 30 29 28 26 25 22 23 25 22 21 22 24 26 22 24 33 36 34 35 32 28 29 29 28 27 26 29 29 28 28 27 25 23 26 31 28 23 20 19 20 16 10 10 12 13 14 13 11 11 10 10 11 11 10
91 86 85 82 80 79 76 74 72 68 62 55 52 52 52 53 55 54 49 45 45 43 40 39 36 33 33 33 32 33 35 37 37 34 31 28 25 25 24 22 23 25 24 23 23 24 25 24 28 38 38 33 34 33 31 31 29 27 25 25 25 26 27 27 27 28 26 24 28 28 22 18 19 19 15 12 12 12 13 14 13 11 10 10 11 11 11 12
95 91 87 84 84 82 79 77 74 69 63 58 55 54 54 55 57 56 52 47 46 46 44 42 40 37 35 32 32 34 36 37 38 37 34 29 25 24 23 22 22 24 23 24 23 25 28 31 34 39 38 35 34 34 37 37 33 30 29 27 25 25 25 24 26 30 29 25 26 30 26 16 13 17 16 15 13 12 13 13 12 11 10 11 12 12 13 14
97 97 92 87 89 88 82 81 79 74 69 63 57 56 57 58 59 57 53 50 48 47 46 46 43 38 35 34 34 35 35 35 36 36 33 31 27 25 25 24 23 24 24 24 25 25 28 30 31 34 39 40 37 36 39 39 34 31 31 30 29 29 27 27 29 30 29 28 26 30 30 17 12 20 20 16 15 14 14 13 12 12 12 13 13 13 15 16
97 99 97 93 93 92 87 81 76 74 72 69 66 64 61 60 61 60 57 53 51 48 47 48 45 41 41 40 36 34 34 35 35 34 34 34 30 27 27 26 25 26 25 24 24 24 26 29 31 36 41 42 40 40 40 37 35 32 31 31 32 33 32 31 31 29 27 28 26 28 28 17 16 25 21 18 20 18 15 15 14 14 15 15 16 16 17 18
98 99 99 96 94 94 92 84 76 76 76 73 71 70 67 65 65 64 62 59 56 52 49 49 48 48 49 45 38 37 37 35 35 34 35 37 35 33 32 29 28 27 25 25 23 23 28 31 31 33 37 37 36 36 33 32 34 35 35 34 33 34 34 31 31 32 29 29 28 25 22 14 15 21 18 18 21 18 16 16 16 17 18 17 19 19 20 20
97 99 100 99 97 97 96 90 84 83 81 77 76 74 72 72 70 67 65 63 61 57 54 53 52 52 52 48 42 41 40 39 39 36 35 36 39 40 39 35 32 30 28 27 25 28 35 35 29 28 29 26 23 25 28 30 32 33 33 34 32 32 33 33 38 35 27 28 30 25 18 14 14 17 18 20 22 21 20 19 18 20 21 19 20 21 22 22
87 94 98 99 99 99 99 96 93 90 85 81 80 78 75 75 75 75 72 67 65 63 60 58 57 55 53 49 48 46 42 42 43 40 38 38 40 44 44 41 38 36 33 31 28 33 38 35 31 29 27 23 21 26 31 31 29 30 30 33 33 32 32 35 36 29 22 28 31 22 19 19 15 15 18 20 23 24 24 21 21 22 22 22 22 21 22 23
75 83 89 94 98 98 97 97 96 95 94 91 87 83 81 80 80 80 77 75 74 70 67 67 64 60 57 53 51 51 50 48 47 46 47 45 44 46 45 45 44 41 40 38 34 37 39 35 32 32 29 26 25 31 35 31 29 30 31 33 35 34 34 35 33 26 25 30 26 18 21 23 16 15 18 18 20 22 21 21 22 23 23 23 23 22 22 24
67 71 76 84 93 96 94 95 98 99 99 99 97 94 91 89 85 83 83 83 83 80 75 75 73 71 69 64 59 57 56 53 50 50 53 52 51 50 48 48 48 45 45 44 41 41 41 38 37 36 32 30 30 35 38 34 32 33 33 35 37 37 36 34 31 26 26 29 24 21 27 24 16 17 19 18 19 20 19 20 22 23 24 24 24 24 24 25
59 64 67 72 81 89 93 95 98 100 100 100 100 98 97 96 92 89 90 87 86 85 81 76 76 79 80 77 73 68 63 58 55 55 56 57 56 54 52 52 52 50 49 48 47 45 42 43 44 40 38 36 35 37 41 40 37 36 37 39 40 39 38 35 31 29 30 33 30 28 32 26 17 19 21 19 20 21 22 23 23 24 25 26 26 27 27 28
52 56 61 65 71 78 86 91 94 98 100 100 99 97 96 96 93 92 94 90 86 86 83 79 80 84 86 85 82 78 75 71 66 62 60 60 59 57 54 52 54 54 52 52 53 50 46 48 49 46 46 42 36 40 45 43 42 42 41 41 41 40 38 35 33 32 33 36 35 35 35 27 18 21 24 22 23 25 25 25 26 27 28 28 28 27 28 30
44 48 52 59 65 70 76 82 87 92 94 94 94 94 94 93 92 94 97 95 91 89 87 84 83 86 89 89 84 80 81 79 76 72 67 63 61 60 58 56 56 57 57 58 60 58 54 52 51 52 53 46 41 47 50 49 54 53 42 35 36 37 37 36 37 37 36 36 36 36 33 24 21 25 27 26 28 30 29 29 30 31 31 31 31 30 30 31